TimeEST,TemperatureF,Dew PointF,Humidity,Sea Level PressureIn,VisibilityMPH,Wind Direction,Wind SpeedMPH,Gust SpeedMPH,PrecipitationIn,Events,Conditions,WindDirDegrees,DateUTC
12:15 AM,39.2,35.6,87,29.91,3.0,Calm,Calm,-,N/A,Rain,Rain,0,2012-11-07 05:15:00
12:35 AM,39.2,35.6,87,29.91,3.0,Calm,Calm,-,0.01,,Drizzle,0,2012-11-07 05:35:00
12:55 AM,39.2,35.6,87,29.91,3.0,Calm,Calm,-,0.01,,Drizzle,0,2012-11-07 05:55:00
1:15 AM,39.2,35.8,88,29.91,2.5,Calm,Calm,-,N/A,,Drizzle,0,2012-11-07 06:15:00
1:35 AM,39.2,36.0,88,29.90,2.0,Calm,Calm,-,0.01,Rain,Rain,0,2012-11-07 06:35:00
1:55 AM,39.0,35.6,88,29.90,2.0,Calm,Calm,-,0.01,,Light Drizzle,0,2012-11-07 06:55:00
2:15 AM,39.2,36.0,88,29.90,2.0,Calm,Calm,-,N/A,,Drizzle,0,2012-11-07 07:15:00
2:35 AM,39.2,36.0,88,29.90,2.0,Calm,Calm,-,N/A,,Light Drizzle,0,2012-11-07 07:35:00
2:55 AM,39.4,36.3,89,29.90,2.5,Calm,Calm,-,N/A,Rain,Light Rain,0,2012-11-07 07:55:00
3:15 AM,39.2,36.1,89,29.90,2.0,Calm,Calm,-,N/A,,Light Drizzle,0,2012-11-07 08:15:00
3:55 AM,39.2,36.1,89,29.90,2.0,Calm,Calm,-,0.01,Rain,Rain,0,2012-11-07 08:55:00
4:15 AM,39.2,36.0,88,29.90,2.0,Calm,Calm,-,N/A,,Drizzle,0,2012-11-07 09:15:00
8:15 AM,39.2,36.3,89,29.96,1.8,ENE,3.5,-,0.01,,Drizzle,60,2012-11-07 13:15:00
8:35 AM,39.6,36.5,89,29.97,2.0,ENE,3.5,-,0.01,,Light Drizzle,60,2012-11-07 13:35:00
8:55 AM,39.9,36.5,88,29.98,2.0,ENE,3.5,-,0.01,,Light Drizzle,70,2012-11-07 13:55:00
9:15 AM,40.5,37.4,89,29.98,2.5,ENE,4.6,-,N/A,,Light Drizzle,70,2012-11-07 14:15:00
9:35 AM,41.0,37.4,87,29.98,3.0,ENE,3.5,-,N/A,,Overcast,70,2012-11-07 14:35:00
9:55 AM,41.2,37.4,86,29.99,4.0,ENE,3.5,-,N/A,,Overcast,70,2012-11-07 14:55:00
10:15 AM,42.1,37.9,85,29.99,5.0,ENE,4.6,-,N/A,,Overcast,60,2012-11-07 15:15:00
10:35 AM,43.2,37.9,82,30.00,7.0,ENE,4.6,-,N/A,,Overcast,70,2012-11-07 15:35:00
10:55 AM,44.1,37.8,78,30.01,7.0,East,5.8,-,N/A,,Overcast,90,2012-11-07 15:55:00
11:15 AM,44.6,36.7,74,30.02,7.0,NE,6.9,-,N/A,,Overcast,50,2012-11-07 16:15:00
11:35 AM,45.5,36.3,70,30.02,10.0,East,6.9,-,N/A,,Overcast,90,2012-11-07 16:35:00
11:55 AM,46.2,36.1,68,30.03,10.0,NNE,5.8,-,N/A,,Overcast,30,2012-11-07 16:55:00
12:15 PM,46.4,35.2,65,30.02,10.0,NNE,4.6,-,N/A,,Overcast,30,2012-11-07 17:15:00
12:35 PM,47.1,34.3,61,30.02,10.0,NNE,6.9,-,N/A,,Overcast,20,2012-11-07 17:35:00
12:55 PM,48.2,34.2,58,30.02,10.0,NNE,6.9,-,N/A,,Overcast,30,2012-11-07 17:55:00
1:15 PM,47.5,32.5,56,30.02,10.0,NE,5.8,-,N/A,,Mostly Cloudy,40,2012-11-07 18:15:00
1:35 PM,49.5,33.6,54,30.01,10.0,NE,6.9,-,N/A,,Mostly Cloudy,50,2012-11-07 18:35:00
1:55 PM,48.6,32.4,54,30.02,10.0,NNE,5.8,-,N/A,,Scattered Clouds,30,2012-11-07 18:55:00
2:15 PM,50.2,31.8,49,30.02,10.0,ENE,5.8,-,N/A,,Scattered Clouds,60,2012-11-07 19:15:00
2:35 PM,49.5,31.6,50,30.01,10.0,North,9.2,-,N/A,,Scattered Clouds,10,2012-11-07 19:35:00
2:55 PM,49.3,31.8,51,30.02,10.0,NNE,6.9,-,N/A,,Mostly Cloudy,20,2012-11-07 19:55:00
3:15 PM,49.3,31.3,50,30.02,10.0,North,8.1,-,N/A,,Scattered Clouds,360,2012-11-07 20:15:00
3:35 PM,49.8,31.5,49,30.03,10.0,North,6.9,-,N/A,,Scattered Clouds,350,2012-11-07 20:35:00
3:55 PM,49.3,31.6,51,30.03,10.0,NNE,6.9,-,N/A,,Scattered Clouds,20,2012-11-07 20:55:00
4:15 PM,48.7,31.5,51,30.04,10.0,North,8.1,-,N/A,,Scattered Clouds,350,2012-11-07 21:15:00
4:35 PM,48.4,31.3,52,30.05,10.0,North,6.9,-,N/A,,Clear,360,2012-11-07 21:35:00
4:55 PM,47.5,31.6,54,30.06,10.0,North,5.8,-,N/A,,Clear,360,2012-11-07 21:55:00
5:15 PM,45.9,31.5,57,30.07,10.0,North,4.6,-,N/A,,Clear,360,2012-11-07 22:15:00
5:35 PM,43.7,31.1,61,30.07,10.0,NNW,3.5,-,N/A,,Clear,340,2012-11-07 22:35:00
5:55 PM,41.9,31.1,66,30.08,10.0,NNW,4.6,-,N/A,,Clear,340,2012-11-07 22:55:00
6:15 PM,41.0,31.1,68,30.08,10.0,NNW,4.6,-,N/A,,Clear,330,2012-11-07 23:15:00
6:35 PM,40.8,31.1,68,30.09,10.0,NNW,4.6,-,N/A,,Clear,340,2012-11-07 23:35:00
6:55 PM,39.2,30.7,72,30.10,10.0,North,3.5,-,N/A,,Clear,360,2012-11-07 23:55:00
7:15 PM,38.7,30.7,73,30.11,10.0,North,3.5,-,N/A,,Clear,350,2012-11-08 00:15:00
7:35 PM,34.3,29.1,81,30.11,7.0,Calm,Calm,-,N/A,,Clear,0,2012-11-08 00:35:00
7:55 PM,33.8,29.3,84,30.10,7.0,Calm,Calm,-,N/A,,Clear,0,2012-11-08 00:55:00
8:15 PM,33.4,29.3,85,30.10,7.0,Calm,Calm,-,N/A,,Clear,0,2012-11-08 01:15:00
8:35 PM,33.8,29.7,85,30.11,7.0,NW,4.6,-,N/A,,Clear,310,2012-11-08 01:35:00
8:55 PM,32.9,29.3,87,30.12,5.0,WNW,4.6,-,N/A,,Clear,300,2012-11-08 01:55:00
9:15 PM,34.0,30.0,85,30.13,7.0,NW,5.8,-,N/A,,Clear,310,2012-11-08 02:15:00
9:35 PM,34.5,30.6,85,30.13,5.0,WNW,4.6,-,N/A,,Haze,300,2012-11-08 02:35:00
9:55 PM,35.6,31.6,85,30.14,5.0,NW,4.6,-,N/A,,Haze,310,2012-11-08 02:55:00
10:15 PM,34.9,31.1,86,30.14,4.0,NW,4.6,-,N/A,,Clear,310,2012-11-08 03:15:00
10:35 PM,34.7,31.6,89,30.14,3.0,WNW,5.8,-,N/A,,Clear,300,2012-11-08 03:35:00
10:55 PM,34.9,31.8,89,30.14,3.0,NW,4.6,-,N/A,,Clear,310,2012-11-08 03:55:00
11:15 PM,32.9,29.8,88,30.14,2.5,Calm,Calm,-,N/A,,Clear,0,2012-11-08 04:15:00
11:35 PM,31.3,27.9,87,30.14,2.5,Calm,Calm,-,N/A,,Clear,0,2012-11-08 04:35:00
11:55 PM,30.6,27.5,88,30.14,1.8,Calm,Calm,-,N/A,,Mist,0,2012-11-08 04:55:00